Regional Weather Roundup
Issued by NWS

Home | Current Version | Previous Version | Text Only | Print | Product List | Glossary Off
Versions: 1 2 3 4 5 6 7 8 9 10 11 12 13 14 15 16 17 18 19 20 21 22 23 24 25 26 27 28 29 30 31 32 33 34 35 36 37 38 39 40 41 42 43 44 45 46 47 48 49 50

000
ASUS43 KMPX 260501
RWRMN
WEATHER ROUNDUP FOR MINNESOTA
NATIONAL WEATHER SERVICE TWIN CITIES/CHANHASSEN MN
1200 AM CDT WED APR 26 2017


NOTE: "FAIR" INDICATES FEW OR NO CLOUDS BELOW 12,000 FEET WITH NO
SIGNIFICANT WEATHER AND/OR OBSTRUCTIONS TO VISIBILITY. N/A MEANS
CURRENT SKY AND/OR WEATHER CONDITIONS ARE NOT AVAILABLE.

MNZ060>063-068>070-260600-
   Twin Cities Metro

CITY           SKY/WX    TMP DP  RH WIND       PRES   REMARKS
TWIN CITIES    CLOUDY    51  48  89 N12       29.52F
ST PAUL        CLOUDY    52  51  97 N13       29.54S
CRYSTAL        CLOUDY    46  42  86 NE13G22   29.54F
LAKEVILLE      CLOUDY    52  52 100 NE8       29.50F FOG
EDEN PRAIRIE   CLOUDY    50  47  89 N12       29.51F
SOUTH ST PAUL  CLOUDY    52  51  99 NE12      29.52F
LAKE ELMO      DRIZZLE   50  48  93 N9G17     29.55S
$$
MNZ001>005-007-008-013>017-022>024-027-028-260600-
   Northwest Minnesota

CITY           SKY/WX    TMP DP  RH WIND       PRES   REMARKS
BEMIDJI        MIX PCPN  29  27  93 NE20      29.79S WCI  16
HALLOCK        CLOUDY    32  27  80 NE12      29.94F WCI  23
ROSEAU         CLOUDY    30  27  86 NE17      29.92S WCI  18
WARROAD        CLOUDY    30  27  86 NE20G29   29.93S WCI  18
THIEF RVR FALL CLOUDY    30  25  81 NE17G26   29.86F WCI  18
CROOKSTON      CLOUDY    32  27  80 NE15G24   29.88S WCI  22
FOSSTON        CLOUDY    28  27  93 NE15G23   29.81F WCI  17
DETROIT LAKES  MIX PCPN  32  32 100 NE14      29.75F WCI  22
MOORHEAD       RAIN      32  28  86 N21G26    29.79F WCI  20
PARK RAPIDS    FRZ RAIN  32  26  78 NE15G22   29.73F WCI  22
MAHNOMEN       MIX PCPN  31  29  91 NE16      29.77F WCI  20
$$
MNZ006-009>011-018-025>026-260600-
   North Central Minnesota

CITY           SKY/WX    TMP DP  RH WIND       PRES   REMARKS
BAUDETTE       CLOUDY    28  20  71 NE22G29   29.90S WCI  14
FLAG ISLAND    CLOUDY    28  21  74 NE22G31   29.95S WCI  15
INTL FALLS     CLOUDY    26  20  77 NE17G24   29.88F WCI  13
WASKISH        CLOUDY    28  25  86 NE18G26   29.84F WCI  16
BIG FORK       MIX PCPN  28  25  86 NE10G18   29.81F WCI  19
LONGVILLE      MIX PCPN  30  28  93 N9G17     29.74F WCI  22
GRAND RAPIDS   FLURRIES  29  27  92 NE10G17   29.77F WCI  20
CRANE LAKE     MIX PCPN  25  21  86 NE5       29.88F WCI  19
ORR            DRIZZLE   27  21  80 NE6       29.81S WCI  20
COOK           MIX PCPN  27  25  93 NE7G17    29.82S WCI  19
WALKER         MIX PCPN  29  26  90 N10G20    29.76F WCI  20
$$
MNZ012-019>021-037-260600-
   Northeast Minnesota

CITY           SKY/WX    TMP DP  RH WIND       PRES   REMARKS
DULUTH         LGT RAIN  37  35  92 E17G26    29.71F
ELY            LGT SNOW  27  25  93 NE10G20   29.80S WCI  17
HIBBING        FRZ RAIN  29  27  92 NE13G18   29.78R FOG     WCI  19
EVELETH        MIX PCPN  32  29  89 NE10G16   29.79S WCI  24
DULUTH HARBOR  LGT RAIN  37  36  93 NE22G28   29.74F
TWO HARBORS    LGT RAIN  37  34  87 NE7       29.74F
SILVER BAY     RAIN      34  34 100 N7        29.77R WCI  28
GRAND MARAIS     N/A     33  28  81 NE8       29.81R WCI  26
G MARAIS ARPRT FLURRIES  25  19  80 N6        29.76R WCI  18
$$
MNZ029>031-032-039>041-046>048-054>057-064-260600-
   West Central Minnesota

CITY           SKY/WX    TMP DP  RH WIND       PRES   REMARKS
FERGUS FALLS   DRIZZLE   36  36 100 NE6       29.72F
WHEATON        MIX PCPN  34  32  93 N14G22    29.74F WCI  24
MORRIS         DRIZZLE   37  36  93 N17       29.67F
ALEXANDRIA     LGT RAIN  35  34  96 NE15G25   29.66F WCI  25
ELBOW LAKE     RAIN      36  35  98 NE12G18   29.70S
WADENA         MIX PCPN  30  30 100 NE14      29.69F WCI  20
GLENWOOD       RAIN      36  36 100 N18G25    29.64F
APPLETON       LGT RAIN  39  37  93 N15       29.66F
BENSON         DRIZZLE   41  36  81 NE15      29.66F
ORTONVILLE     LGT RAIN  36  32  87 N18       29.68F
MADISON        MIX PCPN  39  39 100 N17G25    29.66F
WILLMAR        RAIN      43  43 100 N14       29.61F
$$
MNZ033>034-036-042>043-049>051-058-059-260600-
   Central Minnesota

CITY           SKY/WX    TMP DP  RH WIND       PRES   REMARKS
ST CLOUD       LGT RAIN  44  43  96 NE15G24   29.58F
SAUK CENTRE    RAIN      37  36  95 N10       29.64F
PAYNESVILLE    LGT RAIN  41  41 100 N16       29.60F
AITKIN         MIX PCPN  36  30  80 N10       29.69F
PINE RIVER     MIX PCPN  30  30 100 N10       29.76F WCI  21
BRAINERD       LGT RAIN  33  31  92 N15       29.69F WCI  23
STAPLES        DRIZZLE   30  30 100 N9        29.70F WCI  22
LONG PRAIRIE   MIX PCPN  34  32  93 N15G24    29.65F WCI  24
LITTLE FALLS   MIX PCPN  36  34  93 N7G16     29.66R
LITCHFIELD     RAIN      46  46 100 N13G20    29.58F
BUFFALO        DRIZZLE   46  44  90 NE13G22   29.55F
MAPLE LAKE     CLOUDY    46  45  95 NE12G17   29.57F
HUTCHINSON     DRIZZLE   47  47  97 N12G17    29.55F
$$
MNZ037-044-045-052-053-260600-
   East Central Minnesota

CITY           SKY/WX    TMP DP  RH WIND       PRES   REMARKS
PRINCETON      DRIZZLE   46  43  87 N15G24    29.59F
MORA           DRIZZLE   39  37  93 NE8G17    29.63F
CAMBRIDGE      DRIZZLE   45  41  87 NE9       29.57F
RUSH CITY      LGT RAIN  42  39  91 NE14G26   29.61F
MOOSE LAKE     LGT RAIN  37  36  93 NE13G22   29.66F
HINCKLEY       RAIN      41  41 100 NE15G23   29.63F
CLOQUET        LGT RAIN  37  36  93 NE9G18    29.70F
MCGREGOR       CLOUDY    34  32  93 N14       29.71F WCI  24
$$
MNZ071>073-080-081-089-090-097-098-260600-
   Southwest Minnesota

CITY           SKY/WX    TMP DP  RH WIND       PRES   REMARKS
MONTEVIDEO     DRIZZLE   39  39 100 N12G23    29.63F
GRANITE FALLS  DRIZZLE   42  40  93 NW16      29.62F
CANBY          LGT RAIN  37  36  96 NW15G21   29.66F
MARSHALL       LGT RAIN  37  36  96 NW18      29.62F FOG
REDWOOD FALLS  RAIN      42  40  92 NW14G20   29.57F FOG
OLIVIA         DRIZZLE   43  41  93 N10       29.57F
PIPESTONE      DRIZZLE   37  34  87 N10G20    29.61F
WINDOM         DRIZZLE   39  39 100 NW25      29.55F
WORTHINGTON    LGT RAIN  38  37  97 N20G31    29.57F
JACKSON        LGT RAIN  39  39 100 NW21G28   29.54F
TRACY          LGT RAIN  39  38  97 NW20G26   29.60F
SLAYTON        LGT RAIN  36  36  98 N20G26    29.60F
$$
MNZ065>067-074>077-082>085-091>093-260600-
   South Central Minnesota

CITY           SKY/WX    TMP DP  RH WIND       PRES   REMARKS
MANKATO        CLOUDY    51  50  96 NW6       29.50F FOG
NEW ULM        RAIN      46  46 100 NW8       29.53F
ST JAMES       LGT RAIN  45  45 100 NW17G23   29.53F
FAIRMONT       LGT RAIN  44  43  96 NW22G28   29.51F FOG
GLENCOE        DRIZZLE   47  48 100 N9        29.52F
FARIBAULT      CLOUDY    54  54 100 N12       29.49F FOG
OWATONNA       DRIZZLE   54  52  94 NE8       29.48F
WASECA         CLOUDY    52  50  93 NE10      29.49F FOG
ALBERT LEA     RAIN      52  52 100 NE8       29.46F
$$
MNZ078>079-086>088-094>096-260600-
   Southeast Minnesota

CITY           SKY/WX    TMP DP  RH WIND       PRES   REMARKS
ROCHESTER      CLOUDY    53  52  96 NE10      29.48F
RED WING       DRIZZLE   55  54  94 E7        29.50F
STANTON        DRIZZLE   55  53  94 NE8       29.49F
DODGE CENTER   LGT RAIN  54  52  94 NE6       29.49F
WINONA         CLOUDY    55  52  88 CALM      29.49F
AUSTIN         LGT RAIN  54  52  94 NE6       29.47F
PRESTON        DRIZZLE   53  50  89 NE8       29.48F
$$
ABBREVIATIONS USED IN REMARKS
   TC - TEMPERATURES IN CELSIUS
  WCI - WIND CHILL INDEX
   HX - HEAT INDEX
  VSB - VISIBILITY
$$



USA.gov is the U.S. government's official web portal to all federal, state and local government web resources and services.